Location: Obersdorf
(47.4079°N, 10.2781°E)
Time: 19:32:06
(UTC+01:00)

ISS - Visible Passes

Search period start: 07 December 2025 00:00
Search period end: 17 December 2025 00:00
Orbit: 416 x 421 km, 51.6° (Epoch: 06 December)

Date Brightness Start Highest point End Pass type
(mag) Time Alt. Az. Time Alt. Az. Time Alt. Az.
11 Dec -0.6 07:13:46 10° S 07:16:10 18° SE 07:18:35 10° E visible
12 Dec -0.3 06:27:11 10° SSE 06:28:28 12° SE 06:29:45 10° ESE visible
13 Dec -2.3 07:13:36 10° SW 07:16:48 42° SE 07:20:01 10° ENE visible
14 Dec -1.6 06:26:01 10° SSW 06:28:56 27° SE 06:31:51 10° E visible
15 Dec -1.0 05:38:49 10° S 05:41:06 18° SE 05:43:27 10° E visible
15 Dec -3.7 07:14:07 10° WSW 07:17:30 90° SSE 07:20:53 10° ENE visible
16 Dec -0.4 04:53:44 11° SE 04:53:44 11° SE 04:54:25 10° ESE visible
16 Dec -3.3 06:26:43 14° SW 06:29:29 62° SSE 06:32:50 10° ENE visible
